Theta_e
323 323 322 322 321 320 320 320 320 320 321 320 320 320 319 319 319 319 319 318 319 319 321 323 323 325 318 306 305 350 365 365 354 346 336 331 329 328 323 323 327 325 326 327 330 329 329
322 322 321 322 322 321 320 320 319 319 319 320 320 319 319 318 318 319 318 318 318 320 322 323 324 325 311 296 328 355 355 353 348 343 336 333 329 332 326 325 324 329 329 327 329 328 331
324 324 323 323 323 322 321 320 321 320 319 319 319 318 318 318 318 318 317 317 318 320 321 323 324 324 307 301 338 353 351 346 347 344 333 337 340 335 330 322 332 329 321 322 324 327 326
324 323 322 322 322 321 321 319 320 319 319 319 319 318 318 317 317 317 316 317 319 321 322 323 325 314 298 312 348 349 347 342 347 346 341 340 341 336 332 331 322 318 319 311 322 325 328
322 322 321 321 322 321 320 319 320 320 318 318 318 318 317 317 316 315 315 317 320 322 324 326 310 305 297 327 329 337 338 337 343 337 339 346 336 331 327 314 306 308 305 309 314 324 325
322 321 320 320 320 320 319 319 319 319 319 318 317 317 317 316 315 314 314 317 324 321 322 324 322 306 306 308 310 331 333 334 329 331 328 327 324 314 304 305 301 302 305 307 310 317 321
321 319 319 319 320 319 319 319 319 319 319 318 317 316 316 315 314 313 310 312 307 305 311 304 303 304 308 310 310 316 329 327 324 318 314 318 303 299 307 307 307 304 304 306 311 320 319
320 320 318 319 319 319 318 318 318 318 318 317 317 316 315 315 313 312 306 304 307 312 305 310 309 310 311 309 305 307 322 313 312 306 305 302 299 307 305 304 302 301 300 303 312 321 317
320 319 317 318 318 318 318 317 317 317 317 317 316 316 315 314 313 307 306 309 312 314 303 307 309 308 308 312 306 305 311 309 310 306 305 302 306 307 305 299 297 296 301 301 305 317 318
319 317 318 317 318 317 317 317 317 316 316 316 316 315 315 313 308 309 306 315 312 310 297 300 300 306 304 304 300 309 316 314 307 307 305 303 306 303 297 297 296 294 303 304 314 308 300
319 318 318 318 317 317 317 316 316 316 315 315 315 314 313 311 304 304 309 308 308 308 288 303 299 306 301 301 301 302 313 310 306 304 299 300 298 298 296 299 298 296 301 314 313 302 304
318 318 318 318 317 317 316 316 316 315 315 314 314 313 312 306 304 308 310 309 310 299 292 300 301 300 299 298 300 304 305 307 307 303 297 300 301 299 299 300 300 302 300 297 294 291 288
317 318 318 317 317 316 316 316 315 314 314 313 312 310 308 313 305 310 309 311 300 295 305 299 296 297 296 295 298 301 300 300 298 293 290 296 300 300 301 295 298 299 292 288 288 287 287
317 317 317 317 316 316 316 316 315 314 313 312 309 308 309 313 309 309 311 306 296 304 303 305 299 296 296 298 295 297 296 296 295 295 290 292 295 301 304 296 297 296 293 289 285 285 289
317 317 317 316 316 315 315 315 314 313 312 311 308 306 307 311 313 310 307 298 299 302 306 304 301 298 297 299 297 295 293 295 296 296 293 293 295 304 304 303 301 295 293 294 287 286 291
316 317 316 316 315 315 315 315 314 312 311 310 305 309 310 313 313 310 303 297 301 307 306 300 296 299 296 297 295 293 294 300 299 299 299 296 294 299 303 303 302 299 298 293 289 286 288
316 316 316 316 315 315 315 314 313 312 310 310 307 307 313 312 311 309 299 298 304 308 308 302 299 298 297 298 298 298 299 303 305 303 301 296 297 298 299 298 295 297 294 289 290 289 289
315 315 315 315 315 315 315 314 313 310 309 308 305 304 313 311 308 297 299 301 304 306 305 303 303 301 300 300 298 299 300 301 306 304 299 299 295 293 298 297 297 296 292 292 291 289 286
313 314 314 315 314 315 314 313 312 310 309 306 307 307 317 310 300 298 302 304 305 306 304 303 303 304 302 299 297 300 303 306 307 303 299 299 292 289 292 296 299 298 296 290 289 288 287
313 313 313 314 314 314 314 313 311 310 309 306 308 304 309 306 301 302 300 301 304 310 304 305 302 303 300 299 300 299 302 306 307 305 320 305 290 291 289 292 294 295 298 294 292 289 288
313 313 313 313 314 314 314 313 311 310 309 307 307 302 305 300 301 302 299 303 305 306 309 305 302 303 300 297 297 298 301 302 305 314 302 299 295 291 294 294 296 297 299 299 296 294 293
314 313 313 312 313 314 314 313 312 310 308 309 305 303 305 302 302 302 299 302 305 306 306 303 303 305 303 298 300 301 300 302 299 301 296 296 294 294 292 297 297 297 300 299 298 295 296
314 313 312 312 312 313 313 313 313 311 307 298 303 304 307 300 301 298 300 304 307 307 308 309 308 303 302 304 305 303 305 303 306 303 298 297 293 291 291 294 296 292 297 299 300 300 303
313 313 313 312 312 312 312 312 312 312 309 303 300 302 303 297 302 303 307 307 307 307 305 309 309 302 305 308 304 306 302 300 300 300 299 294 292 291 290 292 287 296 302 304 306 308 308
313 313 313 313 312 312 312 311 311 312 311 301 301 300 302 299 304 305 306 304 304 304 304 307 310 309 310 303 299 297 296 298 298 299 298 295 293 290 290 289 293 302 307 308 307 306 312
312 312 312 312 312 311 311 312 312 312 311 301 300 301 300 301 300 308 305 304 300 299 303 305 311 311 304 300 298 293 294 294 295 297 293 294 293 294 288 289 289 298 304 310 310 301 310
312 311 311 311 311 312 311 312 313 311 311 302 299 300 298 298 302 304 303 301 305 301 298 301 306 306 304 296 295 293 294 298 295 294 295 294 292 291 290 290 295 301 307 308 297 300 309
310 311 311 311 311 311 311 311 312 312 311 302 298 301 296 292 295 303 307 303 303 302 298 302 302 302 302 297 295 295 294 297 295 296 296 296 294 292 290 289 292 305 307 302 304 306 310
310 310 310 311 311 311 311 310 311 311 311 306 294 300 301 293 294 300 304 305 308 310 305 304 301 302 303 300 299 298 298 296 294 294 298 296 300 298 298 297 303 306 305 308 309 308 309
Wind_Speed
21 21 21 21 19 19 19 20 20 20 19 20 19 18 16 15 13 12 10 9 10 11 12 11 9 8 1 0 9 2 15 16 13 4 6 5 1 2 4 1 7 2 3 2 2 3 5
20 19 20 18 19 19 20 20 20 20 21 20 19 18 16 15 14 12 10 10 11 12 12 10 8 8 1 3 1 10 12 13 7 5 4 7 1 4 0 1 1 8 7 4 6 6 2
19 19 20 20 20 21 21 21 21 21 20 21 19 18 17 15 13 12 11 11 12 12 11 8 6 3 1 10 2 7 12 4 4 5 2 2 5 6 4 3 6 5 6 7 5 2 2
20 20 22 22 21 21 22 23 21 22 22 20 18 19 17 15 13 12 12 12 11 10 9 6 4 2 7 3 6 9 3 4 1 3 5 5 3 4 2 4 3 1 2 5 7 2 1
23 23 23 24 22 22 22 23 22 22 23 22 20 19 17 15 13 13 14 14 10 5 3 3 2 1 7 2 5 5 3 5 4 5 5 10 4 5 3 1 4 4 3 4 8 4 2
23 23 23 24 23 22 22 22 23 23 22 22 20 19 17 14 13 13 17 3 8 4 2 3 3 2 1 5 5 7 4 6 5 6 4 2 2 4 3 3 5 5 4 6 6 6 3
23 24 23 24 24 23 23 23 23 23 23 22 22 19 16 13 11 11 6 4 3 2 1 8 3 2 4 1 6 3 6 4 4 4 5 5 3 7 12 9 5 3 5 7 4 2 1
21 23 24 23 24 24 24 24 24 24 24 23 21 20 17 14 10 8 1 2 3 3 6 5 4 6 6 2 2 6 13 7 7 6 2 2 7 12 4 7 6 5 2 5 2 3 1
22 22 22 22 24 24 24 25 25 25 24 23 21 19 18 15 10 1 3 6 2 3 3 6 5 4 4 7 5 7 11 7 5 7 6 6 10 3 4 5 4 3 5 5 4 2 1
21 22 22 23 24 24 25 25 25 25 25 23 21 19 16 16 3 2 4 2 1 4 6 5 3 5 3 3 1 4 6 6 1 8 6 6 5 3 4 5 6 2 8 5 9 5 3
22 22 23 24 24 25 25 26 26 26 26 24 22 19 15 6 2 1 2 3 4 4 5 1 3 2 1 6 2 1 2 4 7 4 5 9 2 5 4 5 4 8 6 8 4 5 4
22 23 23 24 25 25 26 26 28 27 27 26 22 18 11 2 1 7 6 3 3 7 3 3 3 4 4 2 2 3 2 5 1 2 2 8 4 3 7 2 5 6 6 8 6 3 4
22 22 23 24 25 26 27 28 29 29 29 28 25 18 5 1 3 4 4 4 7 6 6 4 3 2 3 3 1 2 5 2 3 3 5 8 4 3 4 1 3 7 7 3 5 3 6
22 22 23 24 25 27 28 29 30 31 30 29 29 10 8 4 5 5 4 7 7 2 5 5 3 2 3 6 1 2 3 1 2 5 0 2 9 4 5 3 4 4 6 6 2 2 2
21 22 24 25 26 27 28 29 30 32 32 30 21 1 1 4 8 4 7 5 5 5 4 5 6 5 5 4 3 3 3 5 5 7 7 2 5 6 1 3 2 1 5 4 8 3 3
21 22 23 25 26 27 28 30 31 33 34 30 3 3 3 2 6 5 6 4 4 5 2 2 1 0 2 2 3 4 5 3 2 7 3 4 2 2 6 3 5 1 5 5 5 1 1
21 22 23 24 26 27 29 30 31 33 37 23 3 5 6 3 1 6 3 5 6 7 6 5 4 0 1 2 3 2 5 3 4 3 3 4 3 7 3 5 3 5 4 7 6 4 5
20 21 22 24 25 27 29 30 32 32 36 8 3 4 3 2 4 1 2 3 4 4 2 3 3 2 2 1 3 2 1 2 0 6 4 2 5 1 1 2 2 2 3 4 6 2 2
21 22 23 23 25 26 28 30 31 30 27 5 3 3 4 4 3 3 6 4 3 6 4 3 2 1 1 3 2 1 2 4 5 2 4 5 3 4 8 8 6 6 3 5 5 3 3
21 21 23 23 24 26 27 29 31 32 28 1 3 4 6 6 1 3 5 4 7 6 2 4 2 2 3 5 4 1 1 2 2 4 7 9 4 7 7 7 4 2 3 3 5 4 4
20 21 23 23 23 25 26 28 31 33 30 1 5 0 3 4 4 3 2 4 4 7 5 5 2 5 1 4 1 0 1 2 4 1 4 5 4 4 5 4 2 3 5 4 6 5 7
17 19 21 22 23 24 25 26 29 34 30 6 3 4 5 1 3 3 3 2 3 6 2 6 5 8 2 4 7 9 4 1 3 3 3 2 2 3 2 1 2 4 7 7 6 4 2
16 17 19 20 22 22 23 24 26 29 18 4 3 2 3 3 4 1 2 2 2 5 4 1 5 4 2 5 5 3 3 2 2 4 3 3 7 4 5 3 5 4 6 4 4 4 7
16 17 17 19 20 22 23 23 24 23 17 1 2 1 3 4 1 2 1 2 3 3 4 7 6 2 1 6 2 2 4 4 2 6 4 7 6 3 5 2 3 9 6 4 6 4 3
15 16 16 17 19 19 20 22 23 21 22 2 3 3 2 3 3 6 2 3 5 6 5 5 5 1 6 5 3 4 6 6 3 3 1 4 6 3 5 5 4 2 5 7 6 2 0
14 15 16 17 17 18 19 20 21 20 20 3 2 1 1 2 4 3 2 2 2 3 6 5 6 5 3 3 3 6 6 6 4 2 5 6 6 5 3 5 7 10 6 6 7 1 7
16 15 16 16 17 17 18 19 19 20 19 4 2 3 2 1 5 2 4 3 1 1 2 4 8 8 4 2 3 5 6 6 5 6 4 2 3 6 3 5 8 7 4 5 6 11 11
15 15 16 16 16 16 17 17 18 18 18 6 3 4 3 2 7 4 4 2 2 1 1 5 5 3 4 1 3 4 5 7 4 6 8 7 5 4 3 2 6 6 6 8 9 1 10
15 15 16 16 16 16 17 16 16 16 15 9 3 3 1 3 7 3 7 9 8 7 4 2 2 1 4 1 1 1 3 0 4 5 2 2 8 6 9 8 4 5 4 4 6 9 8
Wind_Direction
11 8 8 6 1 358 354 351 351 349 347 346 343 338 331 326 321 318 313 307 300 294 289 294 308 317 273 185 255 235 131 131 152 167 161 132 66 49 329 317 315 208 76 154 236 293 113
13 10 7 358 356 351 349 350 349 348 349 345 342 337 331 328 323 319 311 307 301 296 292 297 307 315 206 229 16 149 128 137 166 179 165 142 146 204 122 327 236 313 326 332 279 293 268
1 359 356 354 351 349 347 345 342 341 345 350 342 338 334 331 326 319 311 307 302 294 290 292 294 275 74 232 81 155 147 172 180 179 91 68 29 17 331 320 240 293 333 345 279 199 273
1 359 358 356 351 348 345 348 342 341 341 339 344 341 338 334 328 320 309 307 298 288 283 277 262 270 240 355 112 129 114 33 155 276 340 322 204 337 261 291 359 247 347 337 284 33 159
0 358 357 356 350 347 344 345 339 337 340 341 341 339 339 336 331 321 311 306 286 260 240 163 123 100 278 107 133 150 138 162 119 38 343 297 358 216 291 247 358 349 293 247 300 234 49
358 356 354 354 348 346 344 342 338 336 335 336 343 341 337 336 332 326 320 265 120 129 210 210 255 27 273 236 158 150 161 110 139 129 355 173 270 290 36 110 233 214 205 264 256 282 173
359 357 352 351 346 346 344 341 337 336 334 335 341 340 338 337 331 330 345 98 36 26 301 196 190 254 300 267 124 159 156 113 48 116 168 196 127 222 237 209 237 208 212 238 239 328 28
354 351 354 350 346 344 342 340 337 335 335 334 336 339 337 332 326 321 277 161 195 177 320 228 248 278 249 244 100 111 130 154 140 203 219 359 239 242 204 241 232 222 192 250 337 102 207
352 355 351 346 345 344 342 340 336 333 334 334 332 333 330 329 322 227 209 229 85 81 140 296 196 206 218 143 188 202 146 162 165 181 193 178 242 317 312 280 172 215 170 208 205 73 13
353 354 348 348 345 344 341 338 335 333 333 333 333 330 328 326 301 187 248 248 114 162 66 288 288 272 130 131 245 192 177 141 184 210 191 234 274 232 288 257 135 297 189 159 140 119 213
353 351 349 347 345 343 341 338 335 333 332 332 332 328 325 335 282 199 163 322 123 70 67 234 222 124 118 145 142 289 217 71 192 194 114 257 242 234 246 231 157 227 121 151 157 87 87
352 351 349 348 345 344 341 338 335 333 332 330 330 324 324 138 229 249 306 345 62 43 32 331 185 166 117 3 352 108 104 54 114 163 318 250 262 237 208 272 195 116 83 47 53 64 4
352 350 349 348 346 344 342 339 336 334 333 330 328 316 254 273 225 318 308 54 36 88 352 304 240 143 140 196 283 140 159 158 164 16 360 333 281 277 206 273 359 64 62 3 34 33 220
353 352 350 350 348 346 343 341 337 334 334 332 327 319 192 232 307 328 49 48 60 337 266 308 351 96 175 153 217 127 73 278 183 103 346 35 349 11 345 225 188 62 137 145 182 164 271
354 352 351 351 349 347 344 342 339 336 335 336 321 307 184 260 215 345 70 56 200 200 252 319 336 47 329 332 132 133 170 206 218 167 168 123 283 311 238 330 60 152 44 167 103 19 74
353 352 352 351 349 348 346 344 343 340 336 339 352 356 327 49 148 81 75 225 235 216 206 186 118 340 26 356 101 124 194 197 225 185 189 185 341 324 295 41 27 112 151 40 13 105 77
354 352 352 351 350 349 348 347 346 344 339 333 22 54 322 34 35 52 136 235 269 242 210 165 169 195 346 56 96 160 190 235 203 102 99 116 138 290 17 28 321 14 40 52 109 101 145
354 353 353 353 351 351 350 349 349 350 344 44 2 63 288 38 52 42 172 205 296 298 279 276 111 128 176 117 82 159 141 244 265 143 143 182 129 191 215 358 289 4 109 107 112 225 82
357 356 356 354 354 353 353 352 350 352 359 328 30 274 319 73 105 334 314 308 275 334 329 351 297 338 114 67 88 40 37 14 5 99 150 184 34 21 353 359 354 48 16 111 104 83 186
357 358 359 357 357 356 356 354 352 350 352 67 35 13 333 42 35 89 9 343 323 328 279 358 297 104 95 40 33 226 342 351 22 92 84 84 108 148 176 203 182 29 9 91 106 104 181
357 359 360 360 359 358 359 358 354 351 348 3 25 343 175 336 347 13 358 352 329 346 358 1 26 29 176 138 53 295 292 328 51 88 68 103 148 176 231 223 189 216 226 193 199 194 158
355 357 1 2 2 1 1 1 0 356 343 71 54 25 354 279 300 324 353 12 4 320 292 335 41 320 357 164 181 205 168 225 197 9 76 19 187 165 270 179 218 260 253 235 225 128 265
352 355 359 1 3 4 3 4 6 6 3 44 330 345 96 306 341 36 225 323 329 355 282 296 337 331 31 4 290 272 182 151 187 173 156 128 133 104 249 354 6 335 246 219 197 172 154
353 354 356 360 3 4 5 7 8 12 21 306 314 344 47 283 297 232 247 310 286 315 269 306 319 309 16 300 250 48 49 353 233 251 154 148 131 131 200 56 248 243 286 202 115 19 146
351 354 354 355 360 3 4 7 8 10 7 50 341 29 46 282 259 293 252 260 325 301 243 254 276 320 321 22 54 24 338 358 272 20 240 152 124 149 154 184 272 19 203 167 145 350 20
348 352 354 355 356 359 2 2 6 6 6 40 2 299 29 85 256 322 321 330 281 289 320 280 314 304 44 97 109 171 211 218 275 331 60 78 78 121 134 164 202 231 208 158 119 317 219
353 351 350 352 354 355 359 358 0 4 5 22 311 1 89 256 273 230 216 230 114 85 252 300 332 338 21 107 156 169 222 192 189 185 194 37 38 171 173 223 283 245 161 138 106 233 169
347 347 346 346 348 350 352 355 359 2 4 27 292 360 60 288 280 253 298 297 0 111 131 295 347 341 349 31 159 212 188 217 153 196 176 172 161 200 113 135 266 162 76 157 207 18 155
344 344 344 346 345 346 349 350 352 355 1 19 338 335 16 193 255 284 253 261 255 231 167 259 217 279 231 72 326 293 265 190 176 215 44 212 185 187 172 212 230 238 259 268 177 142 161